Powrót do katalogu

HULIANWANG DIGUI-103

AktywnyŁącznośćLEO
NORAD 66419·PAYLOAD·🇨🇳 China

Wystrzelony Nov 10, 2025 z Wenchang Space Launch Site

Loading…

Następne Przeloty (najbliższe 24 godziny)

TLE

ŚwieżeSource: Space-Track

Epoka: Sep 14, 2026, 22:40 UTC

1 66419U 25258H   26257.94454349 -.00000081  00000-0  93391-4 0  9991
2 66419  50.0027 333.4000 0000273 127.4208 232.6689 13.29329800 41672

Śledź HULIANWANG DIGUI-103 w czasie rzeczywistym z AllMySat

Download on the App Store